Location: Jackson Park
(37.2862°N, 79.9123°W)
Time: 20:49:06
(UTC+00:00)

Vanguard 3 - Pass Details

Date: 16 May 2026
Orbit: 507 x 3205 km, 33.4° (Epoch: 31 May)

Event Time Altitude Azimuth Distance (km) Brightness Sun altitude
Rises 01:20:01 0° 284° (WNW) 6,795 13.3 -10.9°
Reaches altitude 10° 01:25:47 10° 275° (W) 5,435 12.3 -11.9°
Maximum altitude 01:37:38 29° 224° (SW) 3,158 10.2 -13.7°
Drops below altitude 10° 01:45:34 10° 169° (SSE) 3,551 10.0 -15.0°
Enters shadow 01:45:50 - 167° (SSE) 3,599 10.0 -15.0°
Sets 01:48:29 0° 157° (SSE) 4,180 - -15.4°
